| time (UTC) | temp C | wind direction | speed KPH | gust KPH | rain 1hr cm | rain 24hr cm | rain mn cm | humidity % | barometer mb |
| 20260507020613 | 16 | 326 | 3.2 | 9.7 | 0.00 | 0.00 | 0.00 | 82 | 1014.8 |
| 20260507015630 | 17 | 311 | 3.2 | 8.0 | 0.00 | 0.00 | 0.00 | 82 | 1015.0 |
| 20260507014627 | 17 | 336 | 1.6 | 8.0 | 0.00 | 0.00 | 0.00 | 82 | 1014.9 |
| 20260507013624 | 17 | 24 | 4.8 | 14.5 | 0.00 | 0.00 | 0.00 | 81 | 1014.6 |
| 20260507012620 | 17 | 298 | 4.8 | 12.9 | 0.00 | 0.00 | 0.00 | 81 | 1014.4 |
| 20260507011616 | 17 | 5 | 3.2 | 8.0 | 0.00 | 0.00 | 0.00 | 81 | 1014.5 |
| 20260507010653 | 17 | 338 | 3.2 | 9.7 | 0.00 | 0.00 | 0.00 | 82 | 1014.3 |
| 20260507005625 | 17 | 305 | 4.8 | 11.3 | 0.00 | 0.00 | 0.00 | 81 | 1014.2 |
| 20260507004623 | 17 | 11 | 3.2 | 14.5 | 0.00 | 0.00 | 0.00 | 81 | 1013.9 |
| 20260507003620 | 17 | 336 | 4.8 | 14.5 | 0.00 | 0.00 | 0.00 | 81 | 1013.9 |
| 20260507002621 | 17 | 288 | 4.8 | 19.3 | 0.00 | 0.00 | 0.00 | 81 | 1013.9 |
| 20260507001616 | 17 | 38 | 3.2 | 12.9 | 0.00 | 0.00 | 0.00 | 80 | 1013.9 |
| 20260507000614 | 17 | 312 | 4.8 | 16.1 | 0.00 | 0.00 | 0.00 | 80 | 1013.6 |
| 20260506235651 | 17 | 26 | 4.8 | 14.5 | 0.00 | 0.00 | 0.00 | 80 | 1013.7 |
| 20260506234627 | 17 | 355 | 4.8 | 16.1 | 0.00 | 0.00 | 0.00 | 80 | 1013.5 |
| 20260506233623 | 17 | 323 | 4.8 | 17.7 | 0.00 | 0.00 | 0.00 | 80 | 1013.7 |
| 20260506232621 | 17 | 311 | 3.2 | 19.3 | 0.00 | 0.00 | 0.00 | 80 | 1013.3 |
| 20260506231616 | 17 | 336 | 3.2 | 12.9 | 0.00 | 0.00 | 0.00 | 79 | 1013.3 |
| 20260506230613 | 17 | 333 | 4.8 | 16.1 | 0.00 | 0.00 | 0.00 | 79 | 1013.4 |
| 20260506225631 | 17 | 5 | 6.4 | 20.9 | 0.00 | 0.00 | 0.00 | 78 | 1013.4 |
| 20260506224629 | 17 | 15 | 6.4 | 16.1 | 0.00 | 0.00 | 0.00 | 78 | 1013.3 |
| 20260506223646 | 18 | 35 | 4.8 | 19.3 | 0.00 | 0.00 | 0.00 | 77 | 1013.3 |
| 20260506222621 | 18 | 63 | 6.4 | 14.5 | 0.00 | 0.00 | 0.00 | 76 | 1013.2 |
| 20260506221617 | 19 | 5 | 8.0 | 14.5 | 0.00 | 0.00 | 0.00 | 75 | 1012.9 |
| 20260506220613 | 19 | 336 | 4.8 | 16.1 | 0.00 | 0.00 | 0.00 | 76 | 1013.1 |
| 20260506215631 | 20 | 360 | 6.4 | 16.1 | 0.00 | 0.00 | 0.00 | 74 | 1013.2 |
| 20260506214627 | 20 | 319 | 4.8 | 17.7 | 0.00 | 0.00 | 0.00 | 73 | 1013.1 |
| 20260506213623 | 20 | 346 | 8.0 | 17.7 | 0.00 | 0.00 | 0.00 | 74 | 1013.0 |
| 20260506212625 | 21 | 313 | 8.0 | 20.9 | 0.00 | 0.00 | 0.00 | 73 | 1012.8 |
| 20260506211803 | 21 | 309 | 8.0 | 20.9 | 0.00 | 0.00 | 0.00 | 72 | 1012.8 |
| 20260506210627 | 22 | 5 | 6.4 | 16.1 | 0.00 | 0.00 | 0.00 | 72 | 1012.8 |
| 20260506205623 | 22 | 153 | 6.4 | 19.3 | 0.00 | 0.00 | 0.00 | 73 | 1012.8 |
| 20260506204619 | 22 | 280 | 4.8 | 17.7 | 0.00 | 0.00 | 0.00 | 74 | 1012.6 |
| 20260506203616 | 22 | 318 | 6.4 | 19.3 | 0.00 | 0.00 | 0.00 | 73 | 1013.0 |
| 20260506202615 | 23 | 27 | 4.8 | 20.9 | 0.00 | 0.00 | 0.00 | 73 | 1013.2 |
| 20260506201652 | 23 | 349 | 8.0 | 22.5 | 0.00 | 0.00 | 0.00 | 74 | 1013.2 |
| 20260506200628 | 22 | 327 | 9.7 | 22.5 | 0.00 | 0.00 | 0.00 | 75 | 1013.0 |
| 20260506195624 | 22 | 13 | 6.4 | 20.9 | 0.00 | 0.00 | 0.00 | 77 | 1012.8 |
| 20260506194621 | 23 | 321 | 6.4 | 19.3 | 0.00 | 0.00 | 0.00 | 75 | 1012.6 |
| 20260506193617 | 24 | 29 | 9.7 | 17.7 | 0.00 | 0.00 | 0.00 | 74 | 1012.4 |
| 20260506192614 | 26 | 325 | 4.8 | 16.1 | 0.00 | 0.00 | 0.00 | 73 | 1012.3 |
| 20260506191611 | 26 | 57 | 3.2 | 12.9 | 0.00 | 0.00 | 0.00 | 73 | 1012.3 |
| 20260506190629 | 26 | 5 | 3.2 | 12.9 | 0.00 | 0.00 | 0.00 | 72 | 1012.5 |
| 20260506185625 | 26 | 38 | 1.6 | 9.7 | 0.00 | 0.00 | 0.00 | 74 | 1012.8 |
| 20260506184639 | 26 | 310 | 1.6 | 6.4 | 0.00 | 0.00 | 0.00 | 72 | 1012.7 |
| 20260506183635 | 26 | 96 | 3.2 | 8.0 | 0.00 | 0.00 | 0.00 | 69 | 1012.6 |
| 20260506182630 | 25 | 26 | 1.6 | 6.4 | 0.00 | 0.00 | 0.00 | 74 | 1012.7 |
| 20260506181626 | 25 | 97 | 1.6 | 4.8 | 0.00 | 0.00 | 0.00 | 74 | 1012.8 |
| 20260506180621 | 25 | 52 | 0.0 | 12.9 | 0.00 | 0.00 | 0.00 | 72 | 1012.6 |
| 20260506175617 | 23 | 45 | 4.8 | 9.7 | 0.00 | 0.00 | 0.00 | 77 | 1012.7 |
| 20260506174613 | 23 | 115 | 1.6 | 12.9 | 0.00 | 0.00 | 0.00 | 77 | 1012.9 |
| 20260506173613 | 22 | 117 | 3.2 | 16.1 | 0.00 | 0.00 | 0.00 | 76 | 1012.8 |
| 20260506172629 | 22 | 47 | 1.6 | 12.9 | 0.00 | 0.00 | 0.00 | 79 | 1013.0 |
| 20260506171627 | 21 | 126 | 4.8 | 14.5 | 0.00 | 0.00 | 0.00 | 80 | 1013.0 |
| 20260506170623 | 21 | 52 | 1.6 | 11.3 | 0.00 | 0.00 | 0.00 | 81 | 1013.0 |
| 20260506165619 | 21 | 56 | 3.2 | 9.7 | 0.00 | 0.00 | 0.00 | 81 | 1013.1 |
| 20260506164615 | 20 | 28 | 3.2 | 11.3 | 0.00 | 0.00 | 0.00 | 84 | 1013.4 |
| 20260506163631 | 19 | 40 | 3.2 | 22.5 | 0.00 | 0.00 | 0.00 | 86 | 1013.3 |
| 20260506162628 | 19 | 126 | 4.8 | 17.7 | 0.00 | 0.00 | 0.00 | 85 | 1013.7 |
| 20260506161624 | 21 | 319 | 9.7 | 22.5 | 0.00 | 0.00 | 0.00 | 82 | 1013.9 |
| 20260506160620 | 23 | 43 | 8.0 | 17.7 | 0.00 | 0.00 | 0.00 | 79 | 1013.8 |
| 20260506155616 | 25 | 88 | 0.0 | 3.2 | 0.00 | 0.00 | 0.00 | 87 | 1013.2 |
| 20260506154614 | 24 | 323 | 0.0 | 4.8 | 0.00 | 0.00 | 0.00 | 87 | 1013.2 |
| 20260506153631 | 24 | 95 | 0.0 | 0.0 | 0.00 | 0.00 | 0.00 | 88 | 1013.1 |
| 20260506152627 | 24 | 53 | 0.0 | 0.0 | 0.00 | 0.00 | 0.00 | 88 | 1012.8 |
| 20260506151623 | 24 | 65 | 0.0 | 4.8 | 0.00 | 0.00 | 0.00 | 88 | 1012.5 |
| 20260506150619 | 24 | 94 | 1.6 | 4.8 | 0.00 | 0.00 | 0.00 | 88 | 1012.3 |
| 20260506145617 | 24 | 131 | 0.0 | 3.2 | 0.00 | 0.00 | 0.00 | 88 | 1011.9 |
| 20260506144617 | 24 | 146 | 0.0 | 3.2 | 0.00 | 0.00 | 0.00 | 88 | 1011.8 |
| 20260506143614 | 24 | 109 | 1.6 | 6.4 | 0.00 | 0.00 | 0.00 | 88 | 1011.9 |
| 20260506142653 | 24 | 119 | 1.6 | 4.8 | 0.00 | 0.00 | 0.00 | 89 | 1011.4 |
| 20260506141647 | 23 | 153 | 0.0 | 3.2 | 0.00 | 0.00 | 0.00 | 90 | 1011.4 |
| 20260506140618 | 23 | 98 | 0.0 | 1.6 | 0.00 | 0.00 | 0.00 | 90 | 1011.9 |
| 20260506135636 | 23 | 148 | 0.0 | 6.4 | 0.00 | 0.00 | 0.00 | 91 | 1011.7 |
| 20260506134613 | 23 | 130 | 3.2 | 9.7 | 0.00 | 0.00 | 0.00 | 91 | 1010.9 |
| 20260506133631 | 23 | 113 | 0.0 | 3.2 | 0.00 | 0.00 | 0.00 | 92 | 1011.0 |
| 20260506132628 | 23 | 142 | 0.0 | 6.4 | 0.00 | 0.00 | 0.00 | 92 | 1010.9 |
| 20260506131627 | 23 | 94 | 0.0 | 3.2 | 0.00 | 0.00 | 0.00 | 92 | 1010.9 |
| 20260506130623 | 23 | 114 | 0.0 | 4.8 | 0.00 | 0.00 | 0.00 | 92 | 1010.8 |
| 20260506125621 | 23 | 116 | 0.0 | 3.2 | 0.00 | 0.00 | 0.00 | 92 | 1010.7 |
| 20260506124616 | 23 | 128 | 1.6 | 4.8 | 0.00 | 0.00 | 0.00 | 92 | 1010.6 |
| 20260506123613 | 23 | 132 | 1.6 | 3.2 | 0.00 | 0.00 | 0.00 | 92 | 1010.7 |
| 20260506122650 | 23 | 111 | 0.0 | 0.0 | 0.00 | 0.00 | 0.00 | 92 | 1010.7 |
| 20260506121626 | 23 | 128 | 0.0 | 0.0 | 0.00 | 0.00 | 0.00 | 92 | 1010.7 |
| 20260506120624 | 23 | 136 | 0.0 | 0.0 | 0.00 | 0.00 | 0.00 | 91 | 1010.7 |
| 20260506115621 | 23 | 121 | 0.0 | 0.0 | 0.00 | 0.00 | 0.00 | 91 | 1010.6 |
| 20260506114618 | 23 | 151 | 0.0 | 0.0 | 0.00 | 0.00 | 0.00 | 91 | 1010.5 |
| 20260506113612 | 23 | 149 | 0.0 | 0.0 | 0.00 | 0.00 | 0.00 | 91 | 1010.5 |
| 20260506112631 | 23 | 168 | 0.0 | 3.2 | 0.00 | 0.00 | 0.00 | 91 | 1010.5 |
| 20260506111627 | 23 | 161 | 1.6 | 4.8 | 0.00 | 0.00 | 0.00 | 91 | 1010.5 |
| 20260506110628 | 23 | 138 | 0.0 | 3.2 | 0.00 | 0.00 | 0.00 | 90 | 1010.4 |
| 20260506105643 | 23 | 173 | 0.0 | 3.2 | 0.00 | 0.00 | 0.00 | 90 | 1010.3 |
| 20260506104617 | 23 | 181 | 0.0 | 3.2 | 0.00 | 0.00 | 0.00 | 90 | 1010.2 |
| 20260506103613 | 23 | 219 | 0.0 | 3.2 | 0.00 | 0.00 | 0.00 | 90 | 1010.1 |
| 20260506102651 | 23 | 227 | 1.6 | 4.8 | 0.00 | 0.00 | 0.00 | 90 | 1009.9 |
| 20260506101627 | 23 | 241 | 1.6 | 9.7 | 0.00 | 0.00 | 0.00 | 90 | 1009.8 |
| 20260506100643 | 23 | 201 | 1.6 | 6.4 | 0.00 | 0.00 | 0.00 | 90 | 1009.8 |
| 20260506095638 | 23 | 179 | 1.6 | 6.4 | 0.00 | 0.00 | 0.00 | 90 | 1009.8 |
| 20260506094615 | 23 | 198 | 1.6 | 6.4 | 0.00 | 0.00 | 0.00 | 90 | 1009.7 |
| 20260506093612 | 23 | 204 | 3.2 | 8.0 | 0.00 | 0.00 | 0.00 | 90 | 1009.6 |
| 20260506092628 | 23 | 238 | 1.6 | 6.4 | 0.00 | 0.00 | 0.00 | 90 | 1009.5 |
| 20260506091645 | 23 | 173 | 1.6 | 8.0 | 0.00 | 0.00 | 0.00 | 90 | 1009.4 |
| 20260506090620 | 23 | 213 | 1.6 | 8.0 | 0.00 | 0.00 | 0.00 | 90 | 1009.3 |
| 20260506085638 | 23 | 171 | 3.2 | 9.7 | 0.00 | 0.00 | 0.00 | 89 | 1009.4 |
| 20260506084633 | 23 | 181 | 3.2 | 8.0 | 0.00 | 0.00 | 0.00 | 90 | 1009.2 |
| 20260506083631 | 23 | 209 | 1.6 | 8.0 | 0.00 | 0.00 | 0.00 | 89 | 1009.3 |
| 20260506082628 | 23 | 161 | 3.2 | 8.0 | 0.00 | 0.00 | 0.00 | 89 | 1009.4 |
| 20260506081624 | 23 | 190 | 3.2 | 8.0 | 0.00 | 0.00 | 0.00 | 89 | 1009.3 |
| 20260506080622 | 23 | 149 | 1.6 | 11.3 | 0.00 | 0.00 | 0.00 | 89 | 1009.3 |
| 20260506072650 | 23 | 178 | 1.6 | 8.0 | 0.00 | 0.00 | 0.00 | 89 | 1009.8 |
| 20260506071647 | 23 | 192 | 3.2 | 8.0 | 0.00 | 0.00 | 0.00 | 89 | 1009.9 |
| 20260506070623 | 23 | 234 | 3.2 | 8.0 | 0.00 | 0.00 | 0.00 | 88 | 1010.0 |
| 20260506061651 | 23 | 186 | 1.6 | 11.3 | 0.00 | 0.00 | 0.00 | 88 | 1009.9 |
| 20260506060624 | 23 | 165 | 4.8 | 8.0 | 0.00 | 0.00 | 0.00 | 88 | 1009.9 |
| 20260506050620 | 24 | 205 | 1.6 | 6.4 | 0.00 | 0.00 | 0.00 | 86 | 1010.0 |
| 20260506044612 | 24 | 229 | 4.8 | 12.9 | 0.00 | 0.00 | 0.00 | 86 | 1010.0 |
| 20260506043630 | 24 | 145 | 3.2 | 11.3 | 0.00 | 0.00 | 0.00 | 86 | 1010.0 |
| 20260506042627 | 24 | 225 | 3.2 | 12.9 | 0.00 | 0.00 | 0.00 | 86 | 1010.0 |
| 20260506041624 | 25 | 180 | 3.2 | 6.4 | 0.00 | 0.00 | 0.00 | 86 | 1009.9 |
| 20260506040620 | 25 | 204 | 3.2 | 8.0 | 0.00 | 0.00 | 0.00 | 85 | 1009.8 |
| 20260506035616 | 25 | 205 | 1.6 | 9.7 | 0.00 | 0.00 | 0.00 | 85 | 1009.6 |
| 20260506034614 | 25 | 184 | 4.8 | 12.9 | 0.00 | 0.00 | 0.00 | 85 | 1009.6 |
| 20260506033611 | 25 | 207 | 3.2 | 14.5 | 0.00 | 0.00 | 0.00 | 85 | 1009.4 |
| 20260506032629 | 25 | 154 | 4.8 | 9.7 | 0.00 | 0.00 | 0.00 | 85 | 1009.3 |
| 20260506031624 | 25 | 131 | 3.2 | 9.7 | 0.00 | 0.00 | 0.00 | 85 | 1009.2 |
| 20260506030625 | 25 | 207 | 0.0 | 6.4 | 0.00 | 0.00 | 0.00 | 84 | 1009.1 |
| 20260506025622 | 25 | 148 | 3.2 | 9.7 | 0.00 | 0.00 | 0.00 | 83 | 1009.0 |
| 20260506024616 | 25 | 171 | 1.6 | 9.7 | 0.00 | 0.00 | 0.00 | 83 | 1008.8 |
| 20260506023611 | 25 | 161 | 3.2 | 8.0 | 0.00 | 0.00 | 0.00 | 82 | 1008.7 |
| 20260506022628 | 25 | 153 | 0.0 | 9.7 | 0.00 | 0.00 | 0.00 | 82 | 1008.5 |
| 20260506021624 | 25 | 148 | 3.2 | 6.4 | 0.00 | 0.00 | 0.00 | 81 | 1008.2 |